Orbital Elements at Epoch 2459200.5 (2020-Dec-17.0) TDB
Reference: JPL 26 (heliocentric ecliptic J2000)
Element | Value | Uncertainty (1-sigma) | Units |
e | .02602863821785602 | 3.2039e-08 | |
a | 2.541444468589938 | 9.4832e-09 | au |
q | 2.475294129966239 | 8.4163e-08 | au |
i | 4.56071494853934 | 3.5557e-06 | deg |
node | 71.29504297039531 | 5.0207e-05 | deg |
peri | 241.2611062001387 | 9.6769e-05 | deg |
M | 314.1365478440147 | 8.3701e-05 | deg |
tp | 2459389.031361654023 (2021-Jun-23.53136165) | 0.00034414 | TDB |
period | 1479.855680392579 4.05 | 8.2829e-06 2.268e-08 | d yr |
n | .2432669649951937 | 1.3616e-09 | deg/d |
Q | 2.607594807213637 | 9.73e-09 | au |
|
| | Orbit Determination Parameters
Additional Information
|